sat.trackr.live / text

‹ back to catalog

STARLINK-5912

NORAD 56020 · 2023-042AL

PAYLOAD ACTIVE UNKNOWN

§ Identity

Operator
Country
US
Launch date
2023-03-24
Launch site
AFETR
Launch vehicle
Mass (kg)
RCS (m²)

Purposes: comms

External: N2YO · Heavens-Above · Gunter

§ Orbital elements

Epoch: 2026-09-20T08:22:47.597664Z

Period
94.27 min
Inclination
43.0035°
Eccentricity
0.0001755
Mean motion
15.27576743 rev/d
Perigee alt
481.9 km
Apogee alt
484.3 km
Semi-major
6,861.2 km
B*
4.3873e-5
RAAN
26.1076°
Arg perigee
274.2837°
Mean anomaly
85.7814°
Rev number
19,280

§ Raw data

STARLINK-59121 56020U 23042AL  26263.34916201  .00000945  00000+0  43873-4 0  99952 56020  43.0035  26.1076 0001755 274.2837  85.7814 15.27576743192803

JSON: /api/v1/satellites/56020 · /tle

For live sub-satellite position, see the globe view (requires WebGL).

§ Visibility from observer

Set your observer location to see the next 7 days of passes ≥ 10°. The values pass through the URL so the page stays shareable.

No JS? Fill the form by hand. The geolocation button needs JavaScript.